User: anonymous
Location: Unspecified
(0.0000°N, 0.0000°E)
Time: 13:20:00
(UTC+02:00)
Language:

Cosmos 2219 - Orbit

View from above orbital plane
View from above orbital plane
View from above satellite
View from above satellite

Ground track
Ground track

The orbit data is extracted from the following two-line orbital elements,

1 22219U 92076A   14292.48238779  .00000039  00000-0  45381-4 0  6361
2 22219 071.0631 067.3480 0016113 066.8763 355.6878 14.13512836130901
Epoch (UTC): 19 October 2014 11:34:38
Eccentricity: 0.0016113
inclination: 71.0631°
perigee height: 836 km
apogee height: 859 km
right ascension of ascending node: 67.3480°
argument of perigee: 66.8763°
revolutions per day: 14.13512836
mean anomaly at epoch: 355.6878°
orbit number at epoch: 13090

The dashed part of the orbit path shows where the satellite is in the earth's shadow,  

DLR